Aomen Kexue 1B

operational
NORAD ID: 56732 Int'l Des: 2023-069 Owner: CASC Country: CN
LEOCIRCULAR

About Aomen Kexue 1B

Description loading...

Live Position

Loading 3D Globe...

Upcoming Passes

Altitude History

Altitude vs Time

uPlot chart will show altitude changes over time

Two-Line Element Set

1 56732U 23069B 25278.53049233 .00009838 00000-0 55397-3 0 9996
2 56732 41.0080 75.0589 0005640 329.8285 30.2204 15.13158193131715
Epoch: Oct 5, 2025 • Age: 19 hours

Current Status

Altitude 523.6 km
Velocity 7.60 km/s
Sub-Earth Point -7.64°S, 68.83°W
Launch Date May 21, 2023
Age 2.3 years
Type other

Technical Details

Classification Payload
Mass 200.00 kg
Dry Mass 200.00 kg
Total Mass 200.00 kg
Length 1.50 m
Diameter 1.00 m
Span 4.00 m
Shape Box + 2 Pan
Manufacturer DFHZ
Bus Type AK1B
Phase Status In Orbit
Owner/State CASC/CN

Large Constellations

Loading constellations...